Torna al catalogo

ERS 27

OV5-1

LostScienzaHEO
NORAD 2769·PAYLOAD·🇺🇸 United States

Lanciato Apr 28, 1967 da Cape Canaveral Space Force Station

Loading…

Prossimi Passaggi (prossime 24 ore)

TLE

ObsoletoSource: Space-Track

Epoca: Oct 25, 1985, 22:29 UTC

1 02769U 67040E   85298.93695547 -.00000636  00000-0  10000-3 0  9991
2 02769  37.5137 218.3934 7531709 140.6932 310.2259  0.50941860 23278

Traccia ERS 27 in tempo reale con AllMySat

Download on the App Store